Погода в Орловском

Россия / Ростовская область     46°52′22″N   42°03′10″E
темп.,
°C
ветер,
м/с
пор.,
м/с
влажн.,
%
обл.,
%
осадки,
мм/ч
давл.,
гПа
погр.,
м
28 ноября, вс
вс2800:00+6юв5985100 0.0 1015166
03:00+6ююв3693100 0.1 1014101
06:00+7ююв3595100 1.4 1014112
09:00+8ююв4788100 2.2 1015138
12:00+11ююв467318 0.1 1014207
15:00+11юв4772100 0.2 1013175
18:00+10юв4868100 0.0 1013158
21:00+9юв41070100 0.0 1013168
29 ноября, пн
пн2900:00+9юв51276100 0.0 1013264
03:00+8юв4783100 0.3 1013145
06:00+9юв6107790 0.4 1012190
09:00+9ююв51185100 0.4 1013221
12:00+12юв596599 0.0 1012265
15:00+14юв6115751 0.0 1010334
18:00+11юв8166297 0.0 1009315
21:00+11юв81762100 0.0 1006343
30 ноября, вт
вт3000:00+11юв61263100 0.0 1003248
03:00+11ююв4765100 0.0 1003130
06:00+12юз81690100 1.6 1003867
09:00+13юз81483100 2.0 1005997
12:00+13зюз81376100 0.3 10041333
15:00+13зюз587464 0.4 1003986
18:00+11юв348399 0.1 100173
21:00+10юв7989100 0.6 996329
1 декабря, ср
ср100:00+11ююв9179398 4.9 9921013
03:00+10юз10216799 5.0 9921408
06:00+5юз142086100 0.2 991940
09:00+3з121776100 0.7 10031203
12:00+5з1015585 0.0 10061394
15:00+6з815532 0.0 10061610
18:00+4юз6126284 0.0 1007745
21:00+4зюз91591100 0.1 10081075
2 декабря, чт
чт200:00+4зюз7128270 0.2 1009914
03:00+3з511835 0.3 1011467
06:00+2зюз411865 0.0 1014326
09:00+3юз511865 0.0 1016602
12:00+6зюз710615 0.0 10171047
15:00+8зюз511575 0.0 10171135
18:00+5ююз48735 0.0 1018130
21:00+5ююз412855 0.0 1019247